Location: St Paul
(33.9360°N, 83.4200°W)
Time: 13:53:19
(UTC-05:00)

Cosmos-2242 - Pass Details

Date: 06 October 2017
Orbit: 592 x 617 km, 82.5° (Epoch: 15 December)

Event Time Altitude Azimuth Distance (km) Brightness Sun altitude
Rises 19:46:42 0° 158° (SSE) 2,846 6.3 -8.3°
Reaches altitude 10° 19:49:11 10° 146° (SE) 1,943 5.3 -8.8°
Maximum altitude 19:52:44 26° 90° (E) 1,206 4.0 -9.5°
Drops below altitude 10° 19:56:17 10° 34° (NE) 1,941 5.3 -10.2°
Sets 19:58:45 0° 21° (NNE) 2,844 6.2 -10.8°
